Location: Devore Heights
(34.2372°N, 117.4156°W)
Time: 02:09:45
(UTC+00:00)

SR - Pass Details

Date: 16 September 2024
Orbit: 578 x 855 km, 66.7° (Epoch: 02 October)

Event Time Altitude Azimuth Distance (km) Brightness Sun altitude
Rises 04:36:16 0° 354° (N) 2,960 ? -32.6°
Enters shadow 04:38:35 - 10° (N) 2,319 ? -33.0°
Reaches altitude 10° 04:39:36 10° 20° (NNE) 2,106 - -33.2°
Maximum altitude 04:42:07 14° 52° (NE) 1,887 - -33.6°
Drops below altitude 10° 04:44:42 10° 84° (E) 2,197 - -34.1°
Sets 04:48:18 0° 109° (ESE) 3,184 - -34.7°
